owner,sensor,date,latitude,longitude,vertical_datum,direction_of_sea_water_velocity,sea_water_speed,upward_sea_water_velocity,qcFlag 
TABS,ioos:station:wmo:42050:1,2011-03-01T00:00:00Z,28.8425,-94.2433,2.0,235.6193148,20.2591214,-99999.0,'11111222,11111222,99999999' 
TABS,ioos:station:wmo:42050:1,2011-03-01T00:30:00Z,28.8425,-94.2433,2.0,234.3787398,20.00275231,-99999.0,'11111222,11111222,99999999' 
TABS,ioos:station:wmo:42050:1,2011-03-01T01:00:00Z,28.8425,-94.2433,2.0,238.4546021,21.63737507,-99999.0,'11111222,11111222,99999999' 
TABS,ioos:station:wmo:42050:1,2011-03-01T01:30:00Z,28.8425,-94.2433,2.0,242.4613714,19.74732893,-99999.0,'11111222,11111222,99999999' 
TABS,ioos:station:wmo:42050:1,2011-03-01T02:00:00Z,28.8425,-94.2433,2.0,243.5089999,17.21773795,-99999.0,'11111222,11111222,99999999' 
TABS,ioos:station:wmo:42050:1,2011-03-01T02:30:00Z,28.8425,-94.2433,2.0,237.7959702,18.06989209,-99999.0,'11111222,11111222,99999999' 
TABS,ioos:station:wmo:42050:1,2011-03-01T03:00:00Z,28.8425,-94.2433,2.0,232.3520465,16.35550672,-99999.0,'11111222,11111222,99999999' 
TABS,ioos:station:wmo:42050:1,2011-03-01T03:30:00Z,28.8425,-94.2433,2.0,226.2341999,15.42557941,-99999.0,'11111222,11111222,99999999' 
TABS,ioos:station:wmo:42050:1,2011-03-01T04:00:00Z,28.8425,-94.2433,2.0,216.3339482,16.47271987,-99999.0,'11111222,11111222,99999999' 
TABS,ioos:station:wmo:42050:1,2011-03-01T04:30:00Z,28.8425,-94.2433,2.0,217.7242309,18.37004355,-99999.0,'11111222,11111222,99999999' 
TABS,ioos:station:wmo:42050:1,2011-03-01T05:00:00Z,28.8425,-94.2433,2.0,222.2093316,21.06139834,-99999.0,'11111222,11111222,99999999' 
TABS,ioos:station:wmo:42050:1,2011-03-01T05:30:00Z,28.8425,-94.2433,2.0,220.6038078,22.04881176,-99999.0,'11111222,11111222,99999999' 
TABS,ioos:station:wmo:42050:1,2011-03-01T06:00:00Z,28.8425,-94.2433,2.0,218.9879128,22.88764077,-99999.0,'11111222,11111222,99999999' 
TABS,ioos:station:wmo:42050:1,2011-03-01T06:30:00Z,28.8425,-94.2433,2.0,218.6667026,24.87223351,-99999.0,'11111222,11111222,99999999' 
TABS,ioos:station:wmo:42050:1,2011-03-01T07:00:00Z,28.8425,-94.2433,2.0,219.1373877,27.89985125,-99999.0,'11111222,11111222,99999999' 
TABS,ioos:station:wmo:42050:1,2011-03-01T07:30:00Z,28.8425,-94.2433,2.0,217.0526535,31.30015974,-99999.0,'11111222,11111222,99999999' 
TABS,ioos:station:wmo:42050:1,2011-03-01T08:00:00Z,28.8425,-94.2433,2.0,215.9516532,31.83408551,-99999.0,'11111222,11111222,99999999' 
TABS,ioos:station:wmo:42050:1,2011-03-01T08:30:00Z,28.8425,-94.2433,2.0,220.0284856,35.82243012,-99999.0,'11111222,11111222,99999999' 
TABS,ioos:station:wmo:42050:1,2011-03-01T09:00:00Z,28.8425,-94.2433,2.0,221.0318421,35.05044508,-99999.0,'11111222,11111222,99999999' 
TABS,ioos:station:wmo:42050:1,2011-03-01T09:30:00Z,28.8425,-94.2433,2.0,227.317261,36.02119931,-99999.0,'11111222,11111222,99999999' 
TABS,ioos:station:wmo:42050:1,2011-03-01T10:00:00Z,28.8425,-94.2433,2.0,228.9656566,36.19154045,-99999.0,'11111222,11111222,99999999' 
TABS,ioos:station:wmo:42050:1,2011-03-01T10:30:00Z,28.8425,-94.2433,2.0,234.0909305,32.31054627,-99999.0,'11111222,11111222,99999999' 
TABS,ioos:station:wmo:42050:1,2011-03-01T11:00:00Z,28.8425,-94.2433,2.0,242.0408921,30.52241308,-99999.0,'11111222,11111222,99999999' 
TABS,ioos:station:wmo:42050:1,2011-03-01T11:30:00Z,28.8425,-94.2433,2.0,245.5949241,32.62505939,-99999.0,'11111222,11111222,99999999' 
TABS,ioos:station:wmo:42050:1,2011-03-01T12:00:00Z,28.8425,-94.2433,2.0,249.4502126,30.34057679,-99999.0,'11111222,11111222,99999999' 
TABS,ioos:station:wmo:42050:1,2011-03-01T12:30:00Z,28.8425,-94.2433,2.0,254.0254058,32.77560831,-99999.0,'11111222,11111222,99999999' 
TABS,ioos:station:wmo:42050:1,2011-03-01T13:00:00Z,28.8425,-94.2433,2.0,262.0822106,32.37864265,-99999.0,'11111222,11111222,99999999' 
TABS,ioos:station:wmo:42050:1,2011-03-01T13:30:00Z,28.8425,-94.2433,2.0,269.1101291,32.85395867,-99999.0,'11111222,11111222,99999999' 
TABS,ioos:station:wmo:42050:1,2011-03-01T14:00:00Z,28.8425,-94.2433,2.0,271.8502354,33.45743565,-99999.0,'11111222,11111222,99999999' 
TABS,ioos:station:wmo:42050:1,2011-03-01T14:30:00Z,28.8425,-94.2433,2.0,282.3926522,33.22407862,-99999.0,'11111222,11111222,99999999' 
TABS,ioos:station:wmo:42050:1,2011-03-01T15:00:00Z,28.8425,-94.2433,2.0,286.2026363,34.0108174,-99999.0,'11111222,11111222,99999999' 
TABS,ioos:station:wmo:42050:1,2011-03-01T15:30:00Z,28.8425,-94.2433,2.0,290.5190093,32.26708075,-99999.0,'11111222,11111222,99999999' 
TABS,ioos:station:wmo:42050:1,2011-03-01T16:00:00Z,28.8425,-94.2433,2.0,293.8669308,31.53669609,-99999.0,'11111222,11111222,99999999' 
TABS,ioos:station:wmo:42050:1,2011-03-01T16:30:00Z,28.8425,-94.2433,2.0,298.6164005,32.73912033,-99999.0,'11111222,11111222,99999999' 
TABS,ioos:station:wmo:42050:1,2011-03-01T17:00:00Z,28.8425,-94.2433,2.0,302.9718608,30.7411288,-99999.0,'11111222,11111222,99999999' 
TABS,ioos:station:wmo:42050:1,2011-03-01T17:30:00Z,28.8425,-94.2433,2.0,303.9464903,28.54515721,-99999.0,'11111222,11111222,99999999' 
TABS,ioos:station:wmo:42050:1,2011-03-01T18:00:00Z,28.8425,-94.2433,2.0,307.1884464,27.72842765,-99999.0,'11111222,11111222,99999999' 
TABS,ioos:station:wmo:42050:1,2011-03-01T18:30:00Z,28.8425,-94.2433,2.0,311.5474034,26.41596676,-99999.0,'11111222,11111222,99999999' 
TABS,ioos:station:wmo:42050:1,2011-03-01T19:00:00Z,28.8425,-94.2433,2.0,306.5014107,25.16652141,-99999.0,'11111222,11111222,99999999' 
TABS,ioos:station:wmo:42050:1,2011-03-01T19:30:00Z,28.8425,-94.2433,2.0,311.5240933,22.97374371,-99999.0,'11111222,11111222,99999999' 
TABS,ioos:station:wmo:42050:1,2011-03-01T20:00:00Z,28.8425,-94.2433,2.0,308.3810014,19.8749088,-99999.0,'11111222,11111222,99999999' 
TABS,ioos:station:wmo:42050:1,2011-03-01T20:30:00Z,28.8425,-94.2433,2.0,303.086453,17.36585443,-99999.0,'11111222,11111222,99999999' 
TABS,ioos:station:wmo:42050:1,2011-03-01T21:00:00Z,28.8425,-94.2433,2.0,309.4788922,17.04966862,-99999.0,'11111222,11111222,99999999' 
TABS,ioos:station:wmo:42050:1,2011-03-01T21:30:00Z,28.8425,-94.2433,2.0,304.7569607,13.55922195,-99999.0,'11111222,11111222,99999999' 
TABS,ioos:station:wmo:42050:1,2011-03-01T22:00:00Z,28.8425,-94.2433,2.0,303.2124743,10.97235162,-99999.0,'11111222,11111222,99999999' 
TABS,ioos:station:wmo:42050:1,2011-03-01T22:30:00Z,28.8425,-94.2433,2.0,307.6870405,10.94311199,-99999.0,'11111222,11111222,99999999' 
TABS,ioos:station:wmo:42050:1,2011-03-01T23:00:00Z,28.8425,-94.2433,2.0,313.4687115,7.936573568,-99999.0,'11133222,11111222,99999999' 
TABS,ioos:station:wmo:42050:1,2011-03-01T23:30:00Z,28.8425,-94.2433,2.0,311.2355939,7.646182054,-99999.0,'11133222,11111222,99999999' 
TABS,ioos:station:wmo:42050:1,2011-03-02T00:00:00Z,28.8425,-94.2433,2.0,336.1338506,4.844223364,-99999.0,'11133222,11111222,99999999' 
TABS,ioos:station:wmo:42050:1,2011-03-02T00:30:00Z,28.8425,-94.2433,2.0,345.5512141,3.366481843,-99999.0,'11133222,11111222,99999999' 
TABS,ioos:station:wmo:42050:1,2011-03-02T01:00:00Z,28.8425,-94.2433,2.0,353.4740496,5.103067705,-99999.0,'11133222,11111222,99999999' 
TABS,ioos:station:wmo:42050:1,2011-03-02T01:30:00Z,28.8425,-94.2433,2.0,357.8510513,4.533188723,-99999.0,'11133222,11111222,99999999' 
TABS,ioos:station:wmo:42050:1,2011-03-02T02:00:00Z,28.8425,-94.2433,2.0,39.44017097,3.211230294,-99999.0,'11133222,11111222,99999999' 
TABS,ioos:station:wmo:42050:1,2011-03-02T02:30:00Z,28.8425,-94.2433,2.0,91.51597702,5.291852228,-99999.0,'11133222,11111222,99999999' 
TABS,ioos:station:wmo:42050:1,2011-03-02T03:00:00Z,28.8425,-94.2433,2.0,73.82984354,2.800803456,-99999.0,'11133222,11111222,99999999' 
TABS,ioos:station:wmo:42050:1,2011-03-02T03:30:00Z,28.8425,-94.2433,2.0,90.75783471,3.780330673,-99999.0,'11133222,11111222,99999999' 
TABS,ioos:station:wmo:42050:1,2011-03-02T04:00:00Z,28.8425,-94.2433,2.0,89.40319194,2.880156246,-99999.0,'11133222,11111222,99999999' 
TABS,ioos:station:wmo:42050:1,2011-03-02T04:30:00Z,28.8425,-94.2433,2.0,112.810996,3.688482073,-99999.0,'11133222,11111222,99999999' 
TABS,ioos:station:wmo:42050:1,2011-03-02T05:00:00Z,28.8425,-94.2433,2.0,108.4349057,2.972541001,-99999.0,'11133222,11111222,99999999' 
TABS,ioos:station:wmo:42050:1,2011-03-02T05:30:00Z,28.8425,-94.2433,2.0,126.8990887,3.914000511,-99999.0,'11133222,11111222,99999999' 
TABS,ioos:station:wmo:42050:1,2011-03-02T06:00:00Z,28.8425,-94.2433,2.0,156.4611116,3.981281201,-99999.0,'11133222,11111222,99999999' 
TABS,ioos:station:wmo:42050:1,2011-03-02T06:30:00Z,28.8425,-94.2433,2.0,178.1184922,5.482955407,-99999.0,'11133222,11111222,99999999' 
TABS,ioos:station:wmo:42050:1,2011-03-02T07:00:00Z,28.8425,-94.2433,2.0,176.7945811,8.76370926,-99999.0,'11133222,11111222,99999999' 
TABS,ioos:station:wmo:42050:1,2011-03-02T07:30:00Z,28.8425,-94.2433,2.0,183.6811309,9.188960768,-99999.0,'11133222,11111222,99999999' 
TABS,ioos:station:wmo:42050:1,2011-03-02T08:00:00Z,28.8425,-94.2433,2.0,187.5578387,13.45691272,-99999.0,'11111222,11111222,99999999' 
TABS,ioos:station:wmo:42050:1,2011-03-02T08:30:00Z,28.8425,-94.2433,2.0,196.3180793,14.98360771,-99999.0,'11111222,11111222,99999999' 
TABS,ioos:station:wmo:42050:1,2011-03-02T09:00:00Z,28.8425,-94.2433,2.0,197.0432148,17.059194,-99999.0,'11111222,11111222,99999999' 
TABS,ioos:station:wmo:42050:1,2011-03-02T09:30:00Z,28.8425,-94.2433,2.0,200.784602,19.04976903,-99999.0,'11111222,11111222,99999999' 
TABS,ioos:station:wmo:42050:1,2011-03-02T10:00:00Z,28.8425,-94.2433,2.0,199.8103897,20.15267972,-99999.0,'11111222,11111222,99999999' 
TABS,ioos:station:wmo:42050:1,2011-03-02T10:30:00Z,28.8425,-94.2433,2.0,209.2523422,21.07800038,-99999.0,'11111222,11111222,99999999' 
TABS,ioos:station:wmo:42050:1,2011-03-02T11:00:00Z,28.8425,-94.2433,2.0,210.3900518,24.3334379,-99999.0,'11111222,11111222,99999999' 
TABS,ioos:station:wmo:42050:1,2011-03-02T11:30:00Z,28.8425,-94.2433,2.0,216.6794613,25.31213938,-99999.0,'11111222,11111222,99999999' 
TABS,ioos:station:wmo:42050:1,2011-03-02T12:00:00Z,28.8425,-94.2433,2.0,224.7622259,23.88627221,-99999.0,'11111222,11111222,99999999' 
TABS,ioos:station:wmo:42050:1,2011-03-02T12:30:00Z,28.8425,-94.2433,2.0,227.2081071,24.03827157,-99999.0,'11111222,11111222,99999999' 
TABS,ioos:station:wmo:42050:1,2011-03-02T13:00:00Z,28.8425,-94.2433,2.0,232.243252,25.85309459,-99999.0,'11111222,11111222,99999999' 
TABS,ioos:station:wmo:42050:1,2011-03-02T13:30:00Z,28.8425,-94.2433,2.0,239.4195213,24.84555695,-99999.0,'11111222,11111222,99999999' 
TABS,ioos:station:wmo:42050:1,2011-03-02T14:00:00Z,28.8425,-94.2433,2.0,242.6390137,24.47835983,-99999.0,'11111222,11111222,99999999' 
TABS,ioos:station:wmo:42050:1,2011-03-02T14:30:00Z,28.8425,-94.2433,2.0,253.6140953,24.14045774,-99999.0,'11111222,11111222,99999999' 
TABS,ioos:station:wmo:42050:1,2011-03-02T15:00:00Z,28.8425,-94.2433,2.0,255.8360854,22.92694921,-99999.0,'11111222,11111222,99999999' 
TABS,ioos:station:wmo:42050:1,2011-03-02T15:30:00Z,28.8425,-94.2433,2.0,265.0662876,23.8383095,-99999.0,'11111222,11111222,99999999' 
TABS,ioos:station:wmo:42050:1,2011-03-02T16:00:00Z,28.8425,-94.2433,2.0,270.4310273,23.9506764,-99999.0,'11111222,11111222,99999999' 
TABS,ioos:station:wmo:42050:1,2011-03-02T16:30:00Z,28.8425,-94.2433,2.0,284.1978707,24.99339513,-99999.0,'11111222,11111222,99999999' 
TABS,ioos:station:wmo:42050:1,2011-03-02T17:00:00Z,28.8425,-94.2433,2.0,284.2664182,24.79461635,-99999.0,'11111222,11111222,99999999' 
TABS,ioos:station:wmo:42050:1,2011-03-02T17:30:00Z,28.8425,-94.2433,2.0,286.9123461,26.05688585,-99999.0,'11111222,11111222,99999999' 
TABS,ioos:station:wmo:42050:1,2011-03-02T18:00:00Z,28.8425,-94.2433,2.0,293.4317704,25.85182392,-99999.0,'11111222,11111222,99999999' 
TABS,ioos:station:wmo:42050:1,2011-03-02T18:30:00Z,28.8425,-94.2433,2.0,300.229914,23.02043006,-99999.0,'11111222,11111222,99999999' 
TABS,ioos:station:wmo:42050:1,2011-03-02T19:00:00Z,28.8425,-94.2433,2.0,304.0643968,23.37001712,-99999.0,'11111222,11111222,99999999' 
TABS,ioos:station:wmo:42050:1,2011-03-02T19:30:00Z,28.8425,-94.2433,2.0,305.8088438,22.13379769,-99999.0,'11111222,11111222,99999999' 
TABS,ioos:station:wmo:42050:1,2011-03-02T20:00:00Z,28.8425,-94.2433,2.0,308.6938371,21.24275877,-99999.0,'11111222,11111222,99999999' 
TABS,ioos:station:wmo:42050:1,2011-03-02T20:30:00Z,28.8425,-94.2433,2.0,309.9119247,19.37329347,-99999.0,'11111222,11111222,99999999' 
TABS,ioos:station:wmo:42050:1,2011-03-02T21:00:00Z,28.8425,-94.2433,2.0,306.3013681,16.31680422,-99999.0,'11111222,11111222,99999999' 
TABS,ioos:station:wmo:42050:1,2011-03-02T21:30:00Z,28.8425,-94.2433,2.0,300.4957194,13.63630815,-99999.0,'11111222,11111222,99999999' 
TABS,ioos:station:wmo:42050:1,2011-03-02T22:00:00Z,28.8425,-94.2433,2.0,303.5771549,14.03116888,-99999.0,'11111222,11111222,99999999' 
TABS,ioos:station:wmo:42050:1,2011-03-02T22:30:00Z,28.8425,-94.2433,2.0,305.387796,15.07504561,-99999.0,'11111222,11111222,99999999' 
TABS,ioos:station:wmo:42050:1,2011-03-02T23:00:00Z,28.8425,-94.2433,2.0,300.5203511,11.73600017,-99999.0,'11111222,11111222,99999999' 
TABS,ioos:station:wmo:42050:1,2011-03-02T23:30:00Z,28.8425,-94.2433,2.0,306.3890258,11.19239474,-99999.0,'11111222,11111222,99999999' 
TABS,ioos:station:wmo:42050:1,2011-03-03T00:00:00Z,28.8425,-94.2433,2.0,311.0373708,9.412884786,-99999.0,'11133222,11111222,99999999' 
TABS,ioos:station:wmo:42050:1,2011-03-03T00:30:00Z,28.8425,-94.2433,2.0,315.0906873,8.966125139,-99999.0,'11133222,11111222,99999999' 
TABS,ioos:station:wmo:42050:1,2011-03-03T01:00:00Z,28.8425,-94.2433,2.0,323.9335564,8.56084108,-99999.0,'11133222,11111222,99999999' 
TABS,ioos:station:wmo:42050:1,2011-03-03T01:30:00Z,28.8425,-94.2433,2.0,324.6542393,12.8605482,-99999.0,'11111222,11111222,99999999' 
TABS,ioos:station:wmo:42050:1,2011-03-03T02:00:00Z,28.8425,-94.2433,2.0,332.9460722,12.04837333,-99999.0,'11111222,11111222,99999999' 
TABS,ioos:station:wmo:42050:1,2011-03-03T02:30:00Z,28.8425,-94.2433,2.0,343.7189461,11.94920081,-99999.0,'11111222,11111222,99999999' 
TABS,ioos:station:wmo:42050:1,2011-03-03T03:00:00Z,28.8425,-94.2433,2.0,354.0669973,13.05996172,-99999.0,'11111222,11111222,99999999' 
TABS,ioos:station:wmo:42050:1,2011-03-03T03:30:00Z,28.8425,-94.2433,2.0,0.823506262,11.83122141,-99999.0,'11111222,11111222,99999999' 
TABS,ioos:station:wmo:42050:1,2011-03-03T04:00:00Z,28.8425,-94.2433,2.0,9.208467072,11.12334482,-99999.0,'11111222,11111222,99999999' 
TABS,ioos:station:wmo:42050:1,2011-03-03T04:30:00Z,28.8425,-94.2433,2.0,11.35780721,11.78070032,-99999.0,'11111222,11111222,99999999' 
TABS,ioos:station:wmo:42050:1,2011-03-03T05:00:00Z,28.8425,-94.2433,2.0,17.98351988,12.43762437,-99999.0,'11111222,11111222,99999999' 
TABS,ioos:station:wmo:42050:1,2011-03-03T05:30:00Z,28.8425,-94.2433,2.0,26.514585,10.12491975,-99999.0,'11111222,11111222,99999999' 
TABS,ioos:station:wmo:42050:1,2011-03-03T06:00:00Z,28.8425,-94.2433,2.0,36.74699805,10.24602362,-99999.0,'11111222,11111222,99999999' 
TABS,ioos:station:wmo:42050:1,2011-03-03T06:30:00Z,28.8425,-94.2433,2.0,36.94102017,9.684007435,-99999.0,'11133222,11111222,99999999' 
TABS,ioos:station:wmo:42050:1,2011-03-03T07:00:00Z,28.8425,-94.2433,2.0,57.02380794,7.56947158,-99999.0,'11133222,11111222,99999999' 
TABS,ioos:station:wmo:42050:1,2011-03-03T07:30:00Z,28.8425,-94.2433,2.0,68.49389716,6.846678027,-99999.0,'11133222,11111222,99999999' 
TABS,ioos:station:wmo:42050:1,2011-03-03T08:00:00Z,28.8425,-94.2433,2.0,82.56108437,6.56525704,-99999.0,'11133222,11111222,99999999' 
TABS,ioos:station:wmo:42050:1,2011-03-03T08:30:00Z,28.8425,-94.2433,2.0,112.053285,5.912596722,-99999.0,'11133222,11111222,99999999' 
TABS,ioos:station:wmo:42050:1,2011-03-03T09:00:00Z,28.8425,-94.2433,2.0,141.591271,8.19295429,-99999.0,'11133222,11111222,99999999' 
TABS,ioos:station:wmo:42050:1,2011-03-03T09:30:00Z,28.8425,-94.2433,2.0,165.5823955,9.478501991,-99999.0,'11133222,11111222,99999999' 
TABS,ioos:station:wmo:42050:1,2011-03-03T10:00:00Z,28.8425,-94.2433,2.0,171.5398591,14.00236052,-99999.0,'11111222,11111222,99999999' 
TABS,ioos:station:wmo:42050:1,2011-03-03T10:30:00Z,28.8425,-94.2433,2.0,178.4932579,16.73578501,-99999.0,'11111222,11111222,99999999' 
TABS,ioos:station:wmo:42050:1,2011-03-03T11:00:00Z,28.8425,-94.2433,2.0,181.8817733,18.26985495,-99999.0,'11111222,11111222,99999999' 
TABS,ioos:station:wmo:42050:1,2011-03-03T11:30:00Z,28.8425,-94.2433,2.0,190.2787798,19.83839711,-99999.0,'11111222,11111222,99999999' 
TABS,ioos:station:wmo:42050:1,2011-03-03T12:00:00Z,28.8425,-94.2433,2.0,191.1785323,19.70383973,-99999.0,'11111222,11111222,99999999' 
TABS,ioos:station:wmo:42050:1,2011-03-03T12:30:00Z,28.8425,-94.2433,2.0,198.487244,20.68762915,-99999.0,'11111222,11111222,99999999' 
TABS,ioos:station:wmo:42050:1,2011-03-03T13:00:00Z,28.8425,-94.2433,2.0,204.9408217,21.46145615,-99999.0,'11111222,11111222,99999999' 
TABS,ioos:station:wmo:42050:1,2011-03-03T13:30:00Z,28.8425,-94.2433,2.0,212.7965824,20.10477804,-99999.0,'11111222,11111222,99999999' 
TABS,ioos:station:wmo:42050:1,2011-03-03T14:00:00Z,28.8425,-94.2433,2.0,225.7030329,20.1611334,-99999.0,'11111222,11111222,99999999' 
TABS,ioos:station:wmo:42050:1,2011-03-03T14:30:00Z,28.8425,-94.2433,2.0,241.511111,20.25229863,-99999.0,'11111222,11111222,99999999' 
TABS,ioos:station:wmo:42050:1,2011-03-03T15:00:00Z,28.8425,-94.2433,2.0,251.4371069,19.88445121,-99999.0,'11111222,11111222,99999999' 
TABS,ioos:station:wmo:42050:1,2011-03-03T15:30:00Z,28.8425,-94.2433,2.0,263.5352579,21.40609726,-99999.0,'11111222,11111222,99999999' 
TABS,ioos:station:wmo:42050:1,2011-03-03T16:00:00Z,28.8425,-94.2433,2.0,268.2718066,21.88995203,-99999.0,'11111222,11111222,99999999' 
TABS,ioos:station:wmo:42050:1,2011-03-03T16:30:00Z,28.8425,-94.2433,2.0,270.7328202,24.25198136,-99999.0,'11111222,11111222,99999999' 
TABS,ioos:station:wmo:42050:1,2011-03-03T17:00:00Z,28.8425,-94.2433,2.0,278.0496836,26.06681032,-99999.0,'11111222,11111222,99999999' 
TABS,ioos:station:wmo:42050:1,2011-03-03T17:30:00Z,28.8425,-94.2433,2.0,285.0397302,27.01533268,-99999.0,'11111222,11111222,99999999' 
TABS,ioos:station:wmo:42050:1,2011-03-03T18:00:00Z,28.8425,-94.2433,2.0,287.513666,25.75375895,-99999.0,'11111222,11111222,99999999' 
TABS,ioos:station:wmo:42050:1,2011-03-03T18:30:00Z,28.8425,-94.2433,2.0,292.1462151,27.80095142,-99999.0,'11111222,11111222,99999999' 
TABS,ioos:station:wmo:42050:1,2011-03-03T19:00:00Z,28.8425,-94.2433,2.0,293.3612528,29.20398089,-99999.0,'11111222,11111222,99999999' 
TABS,ioos:station:wmo:42050:1,2011-03-03T19:30:00Z,28.8425,-94.2433,2.0,297.6087303,30.20981463,-99999.0,'11111222,11111222,99999999' 
TABS,ioos:station:wmo:42050:1,2011-03-03T20:00:00Z,28.8425,-94.2433,2.0,298.6715776,28.59626724,-99999.0,'11111222,11111222,99999999' 
TABS,ioos:station:wmo:42050:1,2011-03-03T20:30:00Z,28.8425,-94.2433,2.0,301.1059591,29.09310915,-99999.0,'11111222,11111222,99999999' 
TABS,ioos:station:wmo:42050:1,2011-03-03T21:00:00Z,28.8425,-94.2433,2.0,298.9956904,29.10848158,-99999.0,'11111222,11111222,99999999' 
TABS,ioos:station:wmo:42050:1,2011-03-03T21:30:00Z,28.8425,-94.2433,2.0,296.670636,24.35082134,-99999.0,'11111222,11111222,99999999' 
TABS,ioos:station:wmo:42050:1,2011-03-03T22:00:00Z,28.8425,-94.2433,2.0,295.5127071,23.12484595,-99999.0,'11111222,11111222,99999999' 
TABS,ioos:station:wmo:42050:1,2011-03-03T22:30:00Z,28.8425,-94.2433,2.0,290.3447548,21.54391097,-99999.0,'11111222,11111222,99999999' 
TABS,ioos:station:wmo:42050:1,2011-03-03T23:00:00Z,28.8425,-94.2433,2.0,295.7713342,21.62038159,-99999.0,'11111222,11111222,99999999' 
TABS,ioos:station:wmo:42050:1,2011-03-03T23:30:00Z,28.8425,-94.2433,2.0,293.458354,19.14204796,-99999.0,'11111222,11111222,99999999' 
TABS,ioos:station:wmo:42050:1,2011-03-04T00:00:00Z,28.8425,-94.2433,2.0,298.9623646,17.42974756,-99999.0,'11111222,11111222,99999999' 
TABS,ioos:station:wmo:42050:1,2011-03-04T00:30:00Z,28.8425,-94.2433,2.0,299.6612762,15.23644315,-99999.0,'11111222,11111222,99999999' 
TABS,ioos:station:wmo:42050:1,2011-03-04T01:00:00Z,28.8425,-94.2433,2.0,309.0009052,15.49271119,-99999.0,'11111222,11111222,99999999' 
TABS,ioos:station:wmo:42050:1,2011-03-04T01:30:00Z,28.8425,-94.2433,2.0,315.2727962,16.3555648,-99999.0,'11111222,11111222,99999999' 
TABS,ioos:station:wmo:42050:1,2011-03-04T02:00:00Z,28.8425,-94.2433,2.0,320.1999851,13.96626292,-99999.0,'11111222,11111222,99999999' 
TABS,ioos:station:wmo:42050:1,2011-03-04T02:30:00Z,28.8425,-94.2433,2.0,329.849176,16.44493843,-99999.0,'11111222,11111222,99999999' 
TABS,ioos:station:wmo:42050:1,2011-03-04T03:00:00Z,28.8425,-94.2433,2.0,336.5470778,13.59297613,-99999.0,'11111222,11111222,99999999' 
TABS,ioos:station:wmo:42050:1,2011-03-04T03:30:00Z,28.8425,-94.2433,2.0,343.4129107,11.76979184,-99999.0,'11111222,11111222,99999999' 
TABS,ioos:station:wmo:42050:1,2011-03-04T04:00:00Z,28.8425,-94.2433,2.0,352.9438059,11.39631958,-99999.0,'11111222,11111222,99999999' 
TABS,ioos:station:wmo:42050:1,2011-03-04T04:30:00Z,28.8425,-94.2433,2.0,345.7548925,11.29738465,-99999.0,'11111222,11111222,99999999' 
TABS,ioos:station:wmo:42050:1,2011-03-04T05:00:00Z,28.8425,-94.2433,2.0,349.1232608,10.12184272,-99999.0,'11111222,11111222,99999999' 
TABS,ioos:station:wmo:42050:1,2011-03-04T05:30:00Z,28.8425,-94.2433,2.0,357.6168154,9.378112817,-99999.0,'11133222,11111222,99999999' 
TABS,ioos:station:wmo:42050:1,2011-03-04T06:00:00Z,28.8425,-94.2433,2.0,13.12802018,9.025884998,-99999.0,'11133222,11111222,99999999' 
TABS,ioos:station:wmo:42050:1,2011-03-04T06:30:00Z,28.8425,-94.2433,2.0,5.19462722,4.749505237,-99999.0,'11133222,11111222,99999999' 
TABS,ioos:station:wmo:42050:1,2011-03-04T07:00:00Z,28.8425,-94.2433,2.0,48.97498448,2.346167087,-99999.0,'11133222,11111222,99999999' 
TABS,ioos:station:wmo:42050:1,2011-03-04T07:30:00Z,28.8425,-94.2433,2.0,87.37760467,2.622746652,-99999.0,'11133222,11111222,99999999' 
TABS,ioos:station:wmo:42050:1,2011-03-04T08:00:00Z,28.8425,-94.2433,2.0,147.1088514,1.988793604,-99999.0,'11133222,11111222,99999999' 
TABS,ioos:station:wmo:42050:1,2011-03-04T08:30:00Z,28.8425,-94.2433,2.0,175.7807041,4.893260672,-99999.0,'11133222,11111222,99999999' 
TABS,ioos:station:wmo:42050:1,2011-03-04T09:00:00Z,28.8425,-94.2433,2.0,180.5869864,6.830358702,-99999.0,'11133222,11111222,99999999' 
TABS,ioos:station:wmo:42050:1,2011-03-04T09:30:00Z,28.8425,-94.2433,2.0,185.8028849,8.011054862,-99999.0,'11133222,11111222,99999999' 
TABS,ioos:station:wmo:42050:1,2011-03-04T10:00:00Z,28.8425,-94.2433,2.0,187.6147556,11.16849587,-99999.0,'11111222,11111222,99999999' 
TABS,ioos:station:wmo:42050:1,2011-03-04T10:30:00Z,28.8425,-94.2433,2.0,193.6858597,16.27201893,-99999.0,'11111222,11111222,99999999' 
TABS,ioos:station:wmo:42050:1,2011-03-04T11:00:00Z,28.8425,-94.2433,2.0,201.7954145,18.55653524,-99999.0,'11111222,11111222,99999999' 
TABS,ioos:station:wmo:42050:1,2011-03-04T11:30:00Z,28.8425,-94.2433,2.0,198.997261,20.61271937,-99999.0,'11111222,11111222,99999999' 
TABS,ioos:station:wmo:42050:1,2011-03-04T12:00:00Z,28.8425,-94.2433,2.0,205.5472696,19.89519791,-99999.0,'11111222,11111222,99999999' 
TABS,ioos:station:wmo:42050:1,2011-03-04T12:30:00Z,28.8425,-94.2433,2.0,211.4026046,20.36262508,-99999.0,'11111222,11111222,99999999' 
TABS,ioos:station:wmo:42050:1,2011-03-04T13:00:00Z,28.8425,-94.2433,2.0,219.4126666,20.55424287,-99999.0,'11111222,11111222,99999999' 
TABS,ioos:station:wmo:42050:1,2011-03-04T13:30:00Z,28.8425,-94.2433,2.0,225.9633719,20.60093444,-99999.0,'11111222,11111222,99999999' 
TABS,ioos:station:wmo:42050:1,2011-03-04T14:00:00Z,28.8425,-94.2433,2.0,236.2281004,19.50050512,-99999.0,'11111222,11111222,99999999' 
TABS,ioos:station:wmo:42050:1,2011-03-04T14:30:00Z,28.8425,-94.2433,2.0,239.6956213,19.06504655,-99999.0,'11111222,11111222,99999999' 
TABS,ioos:station:wmo:42050:1,2011-03-04T15:00:00Z,28.8425,-94.2433,2.0,250.3739423,17.80430566,-99999.0,'11111222,11111222,99999999' 
TABS,ioos:station:wmo:42050:1,2011-03-04T15:30:00Z,28.8425,-94.2433,2.0,255.0184385,17.05985053,-99999.0,'11111222,11111222,99999999' 
TABS,ioos:station:wmo:42050:1,2011-03-04T16:00:00Z,28.8425,-94.2433,2.0,258.4009597,15.56789645,-99999.0,'11111222,11111222,99999999' 